EW6655 Weather Reports


time (UTC)temp
C
wind
direction
speed
KPH
gust
KPH
rain 1hr
cm
rain 24hr
cm
rain mn
cm
humidity
%
barometer
mb
20260510224555 9 49 3.2 12.9 0.08 0.08 0.08 89 1005.8
20260510223050 10 36 3.2 9.7 0.05 0.05 0.05 87 1006.0
20260510221550 10 16 3.2 8.0 0.00 0.00 0.00 85 1006.2
20260510220049 10 344 0.0 4.8 0.00 0.00 0.00 83 1006.5
20260510214543 11 64 0.0 4.8 0.00 0.00 0.00 82 1006.6
20260510213042 11 5 1.6 6.4 0.00 0.00 0.00 81 1006.6
20260510211541 11 43 3.2 8.0 0.00 0.00 0.00 80 1006.8
20260510210039 11 327 1.6 8.0 0.00 0.00 0.00 79 1006.9
20260510204539 11 42 3.2 12.9 0.00 0.00 0.00 78 1006.9
20260510203041 12 342 1.6 9.7 0.00 0.00 0.00 77 1007.1
20260510201539 12 9 0.0 6.4 0.00 0.00 0.00 76 1007.2
20260510200041 12 234 0.0 3.2 0.00 0.00 0.00 75 1007.3
20260510194536 12 234 0.0 3.2 0.00 0.00 0.00 74 1007.4
20260510193050 12 234 0.0 6.4 0.00 0.00 0.00 73 1007.4
20260510191537 12 234 1.6 14.5 0.00 0.00 0.00 73 1007.2
20260510190035 12 28 3.2 16.1 0.00 0.00 0.00 72 1006.9
20260510184534 13 18 4.8 14.5 0.00 0.00 0.00 71 1007.0
20260510183038 13 50 4.8 9.7 0.00 0.00 0.00 71 1007.1
20260510181531 13 17 4.8 12.9 0.00 0.00 0.00 71 1007.2
20260510180044 13 36 6.4 16.1 0.00 0.00 0.00 71 1007.2
20260510174530 13 11 8.0 16.1 0.00 0.00 0.00 71 1007.3
20260510173026 13 27 4.8 11.3 0.00 0.00 0.00 71 1007.7
20260510171525 13 51 3.2 9.7 0.00 0.00 0.00 71 1007.8
20260510170023 14 29 4.8 17.7 0.00 0.00 0.00 70 1007.9
20260510164542 14 39 9.7 19.3 0.00 0.00 0.00 69 1008.0
20260510163021 14 5 4.8 16.1 0.00 0.00 0.00 69 1008.1
20260510161520 15 19 11.3 17.7 0.00 0.00 0.00 68 1008.3
20260510160025 15 44 4.8 20.9 0.00 0.00 0.00 68 1008.2
20260510154519 15 9 8.0 16.1 0.00 0.00 0.00 68 1008.3
20260510153024 15 16 8.0 17.7 0.00 0.00 0.00 67 1008.5
20260510151515 15 45 4.8 16.1 0.00 0.00 0.00 68 1008.6
20260510150014 15 53 8.0 16.1 0.00 0.00 0.00 65 1008.9
20260510144511 16 77 8.0 19.3 0.00 0.00 0.00 64 1009.0
20260510143008 16 32 4.8 12.9 0.00 0.00 0.00 66 1009.3
20260510141506 16 52 4.8 17.7 0.00 0.00 0.00 64 1009.5
20260510140003 16 38 6.4 16.1 0.00 0.00 0.00 64 1009.7
20260510134601 15 46 6.4 19.3 0.00 0.00 0.00 67 1009.9
20260510133100 15 9 6.4 17.7 0.00 0.00 0.00 66 1010.2
20260510131603 15 46 6.4 20.9 0.00 0.00 0.00 68 1010.3
20260510130053 15 11 11.3 24.1 0.00 0.00 0.00 66 1010.4
20260510124608 15 35 4.8 16.1 0.00 0.00 0.00 69 1010.7
20260510123047 15 30 8.0 20.9 0.00 0.00 0.00 68 1010.8
20260510121546 15 62 8.0 17.7 0.00 0.00 0.00 69 1010.9
20260510120044 15 68 6.4 19.3 0.00 0.00 0.00 67 1011.1
20260510114542 14 44 4.8 16.1 0.00 0.00 0.00 70 1011.4
20260510113038 14 14 6.4 16.1 0.00 0.00 0.00 70 1011.5
20260510111558 13 38 8.0 19.3 0.00 0.00 0.00 71 1011.6
20260510110033 13 5 4.8 16.1 0.00 0.00 0.00 70 1011.7
20260510104541 13 18 8.0 19.3 0.00 0.00 0.00 69 1011.8
20260510103036 13 24 4.8 14.5 0.00 0.00 0.00 71 1011.9
20260510101531 13 120 4.8 17.7 0.00 0.00 0.00 70 1011.8
20260510100029 13 77 8.0 16.1 0.00 0.00 0.00 71 1011.9
20260510094530 13 57 8.0 16.1 0.00 0.00 0.00 70 1012.0
20260510093025 13 82 3.2 11.3 0.00 0.00 0.00 71 1012.1
20260510091541 13 37 8.0 17.7 0.00 0.00 0.00 72 1012.3
20260510090020 13 41 8.0 16.1 0.00 0.00 0.00 72 1012.3
20260510084519 13 33 9.7 24.1 0.00 0.00 0.00 72 1012.4
20260510083019 13 18 8.0 16.1 0.00 0.00 0.00 74 1012.4
20260510081531 12 101 1.6 17.7 0.00 0.00 0.00 77 1012.5
20260510080013 12 26 8.0 14.5 0.00 0.00 0.00 77 1012.5
20260510074511 12 36 8.0 14.5 0.00 0.00 0.00 78 1012.6
20260510073016 12 44 9.7 17.7 0.00 0.00 0.00 78 1012.7
20260510071512 11 28 4.8 17.7 0.00 0.00 0.00 79 1012.7
20260510070011 11 57 8.0 16.1 0.00 0.00 0.00 78 1012.6
20260510064523 11 44 3.2 9.7 0.00 0.00 0.00 79 1012.5
20260510063014 11 11 3.2 6.4 0.00 0.00 0.00 79 1012.4
20260510061505 11 32 3.2 6.4 0.00 0.00 0.00 79 1012.3
20260510060004 11 19 1.6 6.4 0.00 0.00 0.00 80 1012.3
20260510054502 11 14 3.2 9.7 0.00 0.00 0.00 80 1012.3
20260510053100 10 24 1.6 6.4 0.00 0.00 0.00 82 1012.4
20260510051608 10 65 1.6 4.8 0.00 0.00 0.00 83 1012.5
20260510044608 8 65 1.6 4.8 0.00 0.00 0.00 90 1012.6
20260510043055 7 65 0.0 0.0 0.00 0.00 0.00 91 1012.7
20260510041606 7 65 0.0 3.2 0.00 0.00 0.00 90 1012.8
20260510040053 7 65 0.0 0.0 0.00 0.00 0.00 89 1012.8
20260510034558 7 65 0.0 0.0 0.00 0.00 0.00 89 1012.9
20260510033050 7 65 0.0 0.0 0.00 0.00 0.00 89 1013.0
20260510031556 7 65 0.0 1.6 0.00 0.00 0.00 88 1013.1
20260510030055 7 65 0.0 0.0 0.00 0.00 0.00 87 1013.2
20260510024645 7 65 0.0 3.2 0.00 0.00 0.00 87 1013.3
20260510023044 7 65 0.0 0.0 0.00 0.00 0.00 86 1013.3
20260510021542 7 65 0.0 0.0 0.00 0.00 0.00 86 1013.4
20260510020039 7 65 0.0 0.0 0.00 0.00 0.00 84 1013.5
20260510014539 8 65 0.0 0.0 0.00 0.00 0.00 83 1013.6
20260510013042 8 65 0.0 0.0 0.00 0.00 0.00 83 1013.7
20260510011536 8 65 0.0 0.0 0.00 0.00 0.00 82 1013.7
20260510010034 8 65 0.0 0.0 0.00 0.00 0.00 81 1013.8
20260510004532 8 65 0.0 1.6 0.00 0.00 0.00 80 1013.8
20260510003044 8 65 0.0 0.0 0.00 0.00 0.00 78 1014.1
20260510001526 9 65 0.0 0.0 0.00 0.00 0.00 76 1014.1
20260510000026 10 65 0.0 0.0 0.00 0.00 0.00 74 1014.4
20260509234533 10 65 0.0 3.2 0.00 0.00 0.00 73 1014.6
20260509233033 10 64 1.6 6.4 0.00 0.00 0.00 72 1014.5
20260509231519 10 71 1.6 6.4 0.00 0.00 0.00 72 1014.6
20260509230018 10 61 1.6 4.8 0.00 0.00 0.00 73 1014.8